StationID,Date,MaxTemp,MinTemp,Precipitation,Snowfall,SnowDepth
"USC00507708","2002-08-01",,,,0.00,
"USC00507708","2002-08-02",,,,0.00,0.00
"USC00507708","2002-08-03",,,,0.00,0.00
"USC00507708","2002-08-04",,,,0.00,0.00
"USC00507708","2002-08-05",,,,0.00,0.00
"USC00507708","2002-08-06",66.92,44.96,3.00,0.00,0.00
"USC00507708","2002-08-07",66.92,53.06,0.00,0.00,0.00
"USC00507708","2002-08-08",66.02,48.02,13.00,0.00,0.00
"USC00507708","2002-08-09",66.02,48.02,0.00,0.00,0.00
"USC00507708","2002-08-10",64.04,51.08,53.00,0.00,0.00
"USC00507708","2002-08-11",55.94,46.04,76.00,0.00,0.00
"USC00507708","2002-08-12",57.02,48.92,165.00,0.00,0.00
"USC00507708","2002-08-13",59.00,50.00,0.00,0.00,0.00
"USC00507708","2002-08-14",69.08,51.08,0.00,0.00,0.00
"USC00507708","2002-08-15",60.98,53.06,0.00,0.00,0.00
"USC00507708","2002-08-16",66.92,48.02,0.00,0.00,0.00
"USC00507708","2002-08-17",71.96,48.92,0.00,0.00,0.00
"USC00507708","2002-08-18",69.98,44.96,0.00,0.00,0.00
"USC00507708","2002-08-19",69.98,44.96,0.00,0.00,0.00
"USC00507708","2002-08-20",62.06,44.96,178.00,0.00,0.00
"USC00507708","2002-08-21",60.98,51.98,5.00,0.00,0.00
"USC00507708","2002-08-22",57.92,51.08,193.00,0.00,0.00
"USC00507708","2002-08-23",55.04,50.00,69.00,0.00,0.00
"USC00507708","2002-08-24",,,,0.00,0.00
"USC00507708","2002-08-25",,,,0.00,0.00
"USC00507708","2002-08-26",57.02,46.04,10.00,0.00,0.00
"USC00507708","2002-08-27",55.94,44.96,5.00,0.00,0.00
"USC00507708","2002-08-28",57.92,42.98,0.00,0.00,0.00
"USC00507708","2002-08-29",68.00,46.04,38.00,0.00,0.00
"USC00507708","2002-08-30",57.02,48.02,56.00,0.00,0.00
"USC00507708","2002-08-31",57.02,48.02,18.00,0.00,0.00
"USC00507708","2002-09-01",59.00,44.06,13.00,0.00,0.00
"USC00507708","2002-09-02",57.02,46.04,0.00,0.00,0.00
"USC00507708","2002-09-03",64.04,39.92,0.00,0.00,0.00
"USC00507708","2002-09-04",66.02,44.06,0.00,0.00,0.00
"USC00507708","2002-09-05",59.00,51.98,0.00,0.00,0.00
"USC00507708","2002-09-06",60.98,51.08,0.00,0.00,0.00
"USC00507708","2002-09-07",60.98,48.92,0.00,0.00,0.00
"USC00507708","2002-09-08",60.08,42.08,0.00,0.00,0.00
"USC00507708","2002-09-09",57.02,44.06,13.00,0.00,0.00
"USC00507708","2002-09-10",60.08,37.04,0.00,0.00,0.00
"USC00507708","2002-09-11",60.08,37.04,0.00,0.00,0.00
"USC00507708","2002-09-12",53.96,42.98,0.00,0.00,0.00
"USC00507708","2002-09-13",55.94,42.98,23.00,0.00,0.00
"USC00507708","2002-09-14",53.96,46.94,79.00,0.00,0.00
"USC00507708","2002-09-15",53.96,46.94,41.00,0.00,0.00
"USC00507708","2002-09-16",57.02,42.08,0.00,0.00,0.00
"USC00507708","2002-09-17",55.94,33.98,0.00,0.00,0.00
"USC00507708","2002-09-18",57.02,37.94,33.00,0.00,0.00
"USC00507708","2002-09-19",59.00,42.98,0.00,0.00,0.00
"USC00507708","2002-09-20",55.04,33.98,0.00,0.00,0.00
"USC00507708","2002-09-21",53.96,35.96,0.00,0.00,0.00
"USC00507708","2002-09-22",50.00,48.02,79.00,0.00,0.00
"USC00507708","2002-09-23",53.96,48.02,76.00,0.00,0.00
"USC00507708","2002-09-24",57.92,50.00,43.00,0.00,0.00
"USC00507708","2002-09-25",57.02,46.94,10.00,0.00,0.00
"USC00507708","2002-09-26",57.02,46.94,5.00,0.00,0.00
"USC00507708","2002-09-27",59.00,41.00,0.00,0.00,0.00
"USC00507708","2002-09-28",59.00,41.00,0.00,0.00,0.00
"USC00507708","2002-09-29",55.94,42.98,0.00,0.00,0.00
"USC00507708","2002-09-30",55.94,42.98,25.00,0.00,0.00
"USC00507708","2002-10-01",55.94,39.92,64.00,0.00,0.00
"USC00507708","2002-10-02",53.96,35.06,0.00,0.00,0.00
"USC00507708","2002-10-03",55.04,33.08,0.00,0.00,0.00
"USC00507708","2002-10-04",50.00,33.98,25.00,0.00,0.00
"USC00507708","2002-10-05",,,0.00,0.00,0.00
"USC00507708","2002-10-06",,,0.00,0.00,0.00
"USC00507708","2002-10-07",57.02,42.08,0.00,0.00,0.00
"USC00507708","2002-10-08",53.96,42.08,3.00,0.00,0.00
"USC00507708","2002-10-09",51.08,30.02,0.00,0.00,0.00
"USC00507708","2002-10-10",51.08,30.92,0.00,0.00,0.00
"USC00507708","2002-10-11",51.08,42.08,66.00,0.00,0.00
"USC00507708","2002-10-12",50.00,35.06,5.00,0.00,0.00
"USC00507708","2002-10-13",53.06,35.96,69.00,0.00,0.00
"USC00507708","2002-10-14",53.96,41.00,8.00,0.00,0.00
"USC00507708","2002-10-15",53.06,41.00,132.00,0.00,0.00
"USC00507708","2002-10-16",55.94,35.06,3.00,0.00,0.00
"USC00507708","2002-10-17",55.94,35.06,71.00,0.00,0.00
"USC00507708","2002-10-18",51.08,46.04,51.00,0.00,0.00
"USC00507708","2002-10-19",50.00,46.94,107.00,0.00,0.00
"USC00507708","2002-10-20",53.96,46.04,178.00,0.00,0.00
"USC00507708","2002-10-21",50.00,44.96,43.00,0.00,0.00
"USC00507708","2002-10-22",51.08,46.94,279.00,0.00,0.00
"USC00507708","2002-10-23",51.98,41.00,18.00,0.00,0.00
"USC00507708","2002-10-24",48.02,33.98,13.00,0.00,0.00
"USC00507708","2002-10-25",48.92,35.06,183.00,0.00,0.00
"USC00507708","2002-10-26",48.02,41.00,8.00,0.00,0.00
"USC00507708","2002-10-27",46.94,30.02,0.00,0.00,0.00
"USC00507708","2002-10-28",46.04,37.04,229.00,0.00,0.00
"USC00507708","2002-10-29",51.98,44.96,112.00,0.00,0.00
"USC00507708","2002-10-30",,,0.00,0.00,0.00
"USC00507708","2002-10-31",,,0.00,0.00,0.00
"USC00507708","2002-11-01",,,,0.00,0.00
"USC00507708","2002-11-02",,,,0.00,0.00
"USC00507708","2002-11-03",,,,0.00,0.00
"USC00507708","2002-11-04",,,,0.00,0.00
"USC00507708","2002-11-05",,,,0.00,0.00
"USC00507708","2002-11-07",48.92,39.02,15.00,0.00,
"USC00507708","2002-11-08",46.04,33.08,8.00,0.00,
"USC00507708","2002-11-09",46.04,30.92,0.00,0.00,
"USC00507708","2002-11-10",44.06,30.02,0.00,0.00,
"USC00507708","2002-11-11",39.92,33.08,5.00,0.00,
"USC00507708","2002-11-12",48.02,33.08,0.00,0.00,
"USC00507708","2002-11-13",48.02,37.04,0.00,0.00,
"USC00507708","2002-11-14",42.98,37.04,25.00,0.00,
"USC00507708","2002-11-15",39.02,26.96,0.00,0.00,
"USC00507708","2002-11-16",42.98,24.98,64.00,0.00,
"USC00507708","2002-11-17",42.08,30.92,0.00,0.00,
"USC00507708","2002-11-18",42.08,30.02,79.00,0.00,
"USC00507708","2002-11-19",42.08,33.08,94.00,0.00,
"USC00507708","2002-11-20",42.98,33.08,48.00,0.00,
"USC00507708","2002-11-21",46.04,32.00,15.00,0.00,
"USC00507708","2002-11-22",44.06,37.94,231.00,0.00,
"USC00507708","2002-11-23",48.02,42.08,427.00,0.00,
"USC00507708","2002-11-24",46.94,37.04,13.00,0.00,
"USC00507708","2002-11-25",44.96,39.02,259.00,0.00,
"USC00507708","2002-11-26",48.02,41.00,198.00,0.00,
"USC00507708","2002-11-27",46.94,33.98,0.00,0.00,
"USC00507708","2002-11-28",41.00,30.02,0.00,0.00,
"USC00507708","2002-11-29",48.02,39.02,259.00,0.00,
"USC00507708","2002-11-30",46.94,39.02,127.00,0.00,
"USC00507708","2002-12-01",42.98,30.02,5.00,0.00,0.00
"USC00507708","2002-12-02",44.96,41.00,193.00,0.00,0.00
"USC00507708","2002-12-03",48.92,41.00,376.00,0.00,0.00
"USC00507708","2002-12-04",51.08,35.96,0.00,0.00,0.00
"USC00507708","2002-12-05",50.00,35.96,0.00,0.00,0.00
"USC00507708","2002-12-06",46.04,37.94,0.00,0.00,0.00
"USC00507708","2002-12-07",44.96,42.08,28.00,0.00,0.00
"USC00507708","2002-12-08",44.06,42.08,3.00,0.00,0.00
"USC00507708","2002-12-09",44.06,39.02,76.00,0.00,0.00
"USC00507708","2002-12-10",41.00,28.04,0.00,0.00,0.00
"USC00507708","2002-12-11",41.00,24.08,0.00,0.00,0.00
"USC00507708","2002-12-12",41.00,24.08,0.00,0.00,0.00
"USC00507708","2002-12-13",35.06,19.04,0.00,0.00,0.00
"USC00507708","2002-12-14",35.06,19.94,0.00,0.00,0.00
"USC00507708","2002-12-15",35.06,19.04,0.00,0.00,0.00
"USC00507708","2002-12-16",30.02,24.08,0.00,0.00,0.00
"USC00507708","2002-12-17",30.02,23.00,0.00,0.00,0.00
"USC00507708","2002-12-18",33.08,17.96,0.00,0.00,0.00
"USC00507708","2002-12-19",21.92,17.96,5.00,,0.00
"USC00507708","2002-12-20",37.94,21.02,8.00,0.00,0.00
"USC00507708","2002-12-21",37.94,28.04,51.00,0.00,0.00
"USC00507708","2002-12-22",39.02,35.06,196.00,0.00,0.00
"USC00507708","2002-12-23",39.02,32.00,74.00,0.00,0.00
"USC00507708","2002-12-24",39.02,24.08,5.00,0.00,0.00
"USC00507708","2002-12-25",33.98,19.94,0.00,0.00,0.00
"USC00507708","2002-12-26",28.04,21.02,3.00,,0.00
"USC00507708","2002-12-27",26.06,17.96,0.00,,0.00
"USC00507708","2002-12-28",26.06,12.92,0.00,,0.00
"USC00507708","2002-12-29",28.04,15.98,3.00,,0.00
"USC00507708","2002-12-30",33.08,17.06,10.00,0.00,0.00
"USC00507708","2002-12-31",30.92,10.04,5.00,0.00,0.00
"USC00507708","2003-01-01",30.92,10.94,3.00,0.00,0.00
"USC00507708","2003-01-02",37.94,26.96,104.00,0.00,0.00
"USC00507708","2003-01-03",41.00,35.06,109.00,0.00,0.00
"USC00507708","2003-01-04",35.96,28.04,3.00,0.00,0.00
"USC00507708","2003-01-05",32.00,15.08,0.00,0.00,0.00
"USC00507708","2003-01-06",28.04,15.98,0.00,,0.00
"USC00507708","2003-01-07",26.06,6.98,0.00,0.00,0.00
"USC00507708","2003-01-08",28.04,8.06,157.00,0.00,0.00
"USC00507708","2003-01-09",42.08,37.04,345.00,0.00,0.00
"USC00507708","2003-01-10",42.08,39.92,163.00,0.00,0.00
"USC00507708","2003-01-11",44.06,37.04,132.00,0.00,0.00
"USC00507708","2003-01-12",42.98,37.04,69.00,0.00,0.00
"USC00507708","2003-01-13",42.08,35.96,99.00,0.00,0.00
"USC00507708","2003-01-14",42.08,35.96,236.00,0.00,0.00
"USC00507708","2003-01-15",42.98,39.92,168.00,0.00,0.00
"USC00507708","2003-01-16",42.08,30.92,188.00,0.00,0.00
"USC00507708","2003-01-17",42.98,33.08,157.00,0.00,0.00
"USC00507708","2003-01-18",42.08,30.92,18.00,0.00,0.00
"USC00507708","2003-01-19",44.06,30.92,193.00,0.00,0.00
"USC00507708","2003-01-20",39.92,30.92,5.00,0.00,0.00
"USC00507708","2003-01-21",42.08,30.92,61.00,0.00,0.00
"USC00507708","2003-01-22",39.92,30.02,23.00,0.00,0.00
"USC00507708","2003-01-23",39.92,37.04,61.00,0.00,0.00
"USC00507708","2003-01-24",39.02,35.96,79.00,0.00,0.00
"USC00507708","2003-01-25",42.08,35.96,295.00,0.00,0.00
"USC00507708","2003-01-26",41.00,37.04,175.00,0.00,0.00
"USC00507708","2003-01-27",41.00,33.08,5.00,0.00,0.00
"USC00507708","2003-01-28",41.00,37.04,328.00,0.00,0.00
"USC00507708","2003-01-29",42.08,35.96,163.00,0.00,0.00
"USC00507708","2003-01-30",37.04,32.00,64.00,0.00,0.00
"USC00507708","2003-01-31",42.08,30.92,0.00,0.00,0.00
"USC00507708","2003-02-01",37.04,30.02,0.00,0.00,0.00
"USC00507708","2003-02-02",42.08,30.02,0.00,0.00,0.00
"USC00507708","2003-02-03",44.96,30.92,0.00,0.00,0.00
"USC00507708","2003-02-04",46.94,30.92,48.00,0.00,0.00
"USC00507708","2003-02-05",48.02,41.00,43.00,0.00,0.00
"USC00507708","2003-02-06",44.96,33.08,0.00,0.00,0.00
"USC00507708","2003-02-07",44.06,33.08,5.00,0.00,0.00
"USC00507708","2003-02-08",44.96,33.08,61.00,0.00,0.00
"USC00507708","2003-02-09",46.94,33.08,10.00,0.00,0.00
"USC00507708","2003-02-10",46.04,33.98,41.00,0.00,0.00
"USC00507708","2003-02-11",48.92,39.02,69.00,0.00,0.00
"USC00507708","2003-02-12",42.08,32.00,36.00,0.00,0.00
"USC00507708","2003-02-13",44.06,33.08,0.00,0.00,0.00
"USC00507708","2003-02-14",41.00,32.00,0.00,0.00,0.00
"USC00507708","2003-02-15",39.92,30.02,0.00,0.00,0.00
"USC00507708","2003-02-16",41.00,28.94,0.00,0.00,0.00
"USC00507708","2003-02-17",39.92,30.02,36.00,0.00,0.00
"USC00507708","2003-02-18",39.02,30.92,28.00,0.00,0.00
"USC00507708","2003-02-19",39.92,28.94,0.00,0.00,0.00
"USC00507708","2003-02-20",39.02,30.02,0.00,0.00,0.00
"USC00507708","2003-02-21",39.02,30.02,0.00,0.00,0.00
"USC00507708","2003-02-22",42.98,30.92,3.00,0.00,0.00
"USC00507708","2003-02-23",46.04,35.06,30.00,0.00,0.00
"USC00507708","2003-02-24",46.94,33.08,25.00,0.00,0.00
"USC00507708","2003-02-25",46.94,32.00,0.00,0.00,0.00
"USC00507708","2003-02-26",44.06,33.08,0.00,0.00,0.00
"USC00507708","2003-02-27",44.96,30.02,0.00,0.00,0.00
"USC00507708","2003-02-28",44.96,35.96,10.00,0.00,0.00
"USC00507708","2003-03-01",46.04,37.04,33.00,0.00,0.00
"USC00507708","2003-03-02",46.94,33.98,0.00,0.00,0.00
"USC00507708","2003-03-03",48.92,35.06,0.00,0.00,0.00
"USC00507708","2003-03-04",46.94,33.98,0.00,0.00,0.00
"USC00507708","2003-03-05",46.94,26.96,0.00,0.00,0.00
"USC00507708","2003-03-06",,,,0.00,0.00
"USC00507708","2003-03-07",,,,0.00,0.00
"USC00507708","2003-03-08",,,,0.00,0.00
"USC00507708","2003-03-09",,,,0.00,0.00
"USC00507708","2003-03-10",,,,0.00,0.00
"USC00507708","2003-03-11",,,,0.00,0.00
"USC00507708","2003-03-12",,,,0.00,0.00
"USC00507708","2003-03-13",,,,0.00,0.00
"USC00507708","2003-03-14",,,,0.00,0.00
"USC00507708","2003-03-15",,,,0.00,0.00
"USC00507708","2003-03-16",,,,0.00,0.00
"USC00507708","2003-03-17",,,,0.00,0.00
"USC00507708","2003-03-18",41.00,24.98,0.00,0.00,0.00
"USC00507708","2003-03-19",41.00,24.98,0.00,0.00,0.00
"USC00507708","2003-03-20",30.92,15.98,5.00,0.00,0.00
"USC00507708","2003-03-21",28.04,12.92,5.00,,0.00
"USC00507708","2003-03-22",24.98,19.04,64.00,,
"USC00507708","2003-03-23",23.00,8.06,74.00,,
"USC00507708","2003-03-24",32.00,19.04,23.00,0.00,
"USC00507708","2003-03-25",33.08,39.02,109.00,0.00,
"USC00507708","2003-03-26",39.92,33.08,239.00,0.00,
"USC00507708","2003-03-27",39.02,32.00,43.00,0.00,
"USC00507708","2003-03-28",35.06,26.06,8.00,0.00,
"USC00507708","2003-03-29",39.02,26.06,0.00,0.00,
"USC00507708","2003-03-30",37.94,26.96,0.00,0.00,
"USC00507708","2003-03-31",39.02,26.96,0.00,0.00,
"USC00507708","2003-04-01",42.08,26.96,0.00,0.00,
"USC00507708","2003-04-02",44.06,33.08,3.00,0.00,
"USC00507708","2003-04-03",39.92,28.94,5.00,0.00,
"USC00507708","2003-04-04",46.04,28.94,3.00,0.00,0.00
"USC00507708","2003-04-05",37.04,30.02,10.00,0.00,0.00
"USC00507708","2003-04-06",39.92,32.00,0.00,0.00,0.00
"USC00507708","2003-04-07",35.96,30.02,5.00,0.00,0.00
"USC00507708","2003-04-08",35.96,30.02,89.00,0.00,0.00
"USC00507708","2003-04-09",37.04,30.02,267.00,0.00,0.00
"USC00507708","2003-04-10",35.06,33.08,79.00,0.00,0.00
"USC00507708","2003-04-11",41.00,35.06,201.00,0.00,0.00
"USC00507708","2003-04-12",46.04,35.06,5.00,0.00,0.00
"USC00507708","2003-04-13",50.00,33.98,0.00,0.00,0.00
"USC00507708","2003-04-14",51.98,33.98,0.00,0.00,0.00
"USC00507708","2003-04-15",50.00,37.04,0.00,0.00,0.00
"USC00507708","2003-04-16",48.02,32.00,3.00,0.00,0.00
"USC00507708","2003-04-17",44.06,26.96,0.00,0.00,0.00
"USC00507708","2003-04-18",42.98,35.06,5.00,0.00,0.00
"USC00507708","2003-04-19",53.96,30.92,8.00,0.00,0.00
"USC00507708","2003-04-20",53.06,39.02,0.00,0.00,0.00
"USC00507708","2003-04-21",53.06,37.94,3.00,0.00,0.00
"USC00507708","2003-04-22",39.02,33.98,5.00,0.00,0.00
"USC00507708","2003-04-23",42.08,37.04,0.00,0.00,0.00
"USC00507708","2003-04-24",57.92,37.04,0.00,0.00,0.00
"USC00507708","2003-04-25",57.92,39.02,51.00,0.00,0.00
"USC00507708","2003-04-26",46.94,33.98,8.00,0.00,0.00
"USC00507708","2003-04-27",57.02,35.96,0.00,0.00,0.00
"USC00507708","2003-04-28",55.94,35.06,0.00,0.00,0.00
"USC00507708","2003-04-29",57.92,33.98,0.00,0.00,0.00
"USC00507708","2003-04-30",,,0.00,0.00,0.00
"USC00507708","2003-05-01",,,0.00,0.00,0.00
"USC00507708","2003-05-02",,,0.00,0.00,0.00
"USC00507708","2003-05-03",,,0.00,0.00,0.00
"USC00507708","2003-05-04",,,0.00,0.00,0.00
"USC00507708","2003-05-05",,,0.00,0.00,0.00
"USC00507708","2003-05-06",62.96,37.94,0.00,0.00,0.00
"USC00507708","2003-05-07",48.02,35.96,3.00,0.00,0.00
"USC00507708","2003-05-08",51.08,35.06,0.00,0.00,0.00
"USC00507708","2003-05-09",48.02,39.92,3.00,0.00,0.00
"USC00507708","2003-05-10",48.02,37.04,10.00,0.00,0.00
"USC00507708","2003-05-11",50.00,37.04,8.00,0.00,0.00
"USC00507708","2003-05-12",50.00,32.00,0.00,0.00,0.00
"USC00507708","2003-05-13",44.06,32.00,0.00,0.00,0.00
"USC00507708","2003-05-14",46.04,30.92,0.00,0.00,0.00
"USC00507708","2003-05-15",53.06,30.92,0.00,0.00,0.00
"USC00507708","2003-05-16",51.08,32.00,0.00,0.00,0.00
"USC00507708","2003-05-17",51.08,33.08,0.00,0.00,0.00
"USC00507708","2003-05-18",46.04,41.00,0.00,0.00,0.00
"USC00507708","2003-05-19",44.96,42.98,66.00,0.00,0.00
"USC00507708","2003-05-20",48.02,42.98,0.00,0.00,0.00
"USC00507708","2003-05-21",50.00,32.00,0.00,0.00,0.00
"USC00507708","2003-05-22",55.04,33.98,0.00,0.00,0.00
"USC00507708","2003-05-23",,,0.00,0.00,0.00
"USC00507708","2003-05-24",,,0.00,0.00,0.00
"USC00507708","2003-05-25",,,0.00,0.00,0.00
"USC00507708","2003-05-26",62.96,37.94,0.00,0.00,0.00
"USC00507708","2003-05-27",53.06,39.92,0.00,0.00,0.00
"USC00507708","2003-05-28",59.00,42.08,0.00,0.00,0.00
"USC00507708","2003-05-29",59.00,42.08,150.00,0.00,0.00
"USC00507708","2003-05-30",51.08,42.08,53.00,0.00,0.00
"USC00507708","2003-05-31",48.02,42.08,109.00,0.00,0.00
"USC00507708","2003-06-01",48.02,42.08,53.00,0.00,0.00
"USC00507708","2003-06-02",48.02,37.94,81.00,0.00,0.00
"USC00507708","2003-06-03",51.98,41.00,8.00,0.00,0.00
"USC00507708","2003-06-04",53.96,42.08,15.00,0.00,0.00
"USC00507708","2003-06-05",53.96,41.00,91.00,0.00,0.00
"USC00507708","2003-06-06",53.96,44.06,53.00,0.00,0.00
"USC00507708","2003-06-07",53.06,42.08,51.00,0.00,0.00
"USC00507708","2003-06-08",51.98,44.06,66.00,0.00,0.00
"USC00507708","2003-06-09",53.06,46.94,38.00,0.00,0.00
"USC00507708","2003-06-10",51.08,46.04,117.00,0.00,0.00
"USC00507708","2003-06-11",51.98,46.04,41.00,0.00,0.00
"USC00507708","2003-06-12",51.98,44.96,38.00,0.00,0.00
"USC00507708","2003-06-13",51.98,46.94,56.00,0.00,0.00
"USC00507708","2003-06-14",64.04,46.94,0.00,0.00,0.00
"USC00507708","2003-06-15",71.06,46.94,0.00,0.00,0.00
"USC00507708","2003-06-16",60.08,48.02,0.00,0.00,0.00
"USC00507708","2003-06-17",59.00,46.94,13.00,0.00,0.00
"USC00507708","2003-06-18",53.96,46.94,23.00,0.00,0.00
"USC00507708","2003-06-19",51.08,46.04,46.00,0.00,0.00
"USC00507708","2003-06-20",55.94,46.04,23.00,0.00,0.00
"USC00507708","2003-06-21",55.04,44.96,36.00,0.00,0.00
"USC00507708","2003-06-22",53.96,44.06,5.00,0.00,0.00
"USC00507708","2003-06-23",59.00,46.94,0.00,0.00,0.00
"USC00507708","2003-06-24",50.00,44.96,307.00,0.00,0.00
"USC00507708","2003-06-25",48.92,44.96,33.00,0.00,0.00
"USC00507708","2003-06-26",50.00,46.04,91.00,0.00,0.00
"USC00507708","2003-06-27",51.98,39.02,10.00,0.00,0.00
"USC00507708","2003-06-28",64.04,46.94,0.00,0.00,0.00
"USC00507708","2003-06-29",66.02,48.02,0.00,0.00,0.00
"USC00507708","2003-06-30",66.92,48.92,0.00,0.00,0.00
"USC00507708","2003-07-01",64.94,53.96,0.00,0.00,0.00
"USC00507708","2003-07-02",66.02,53.06,0.00,0.00,0.00
"USC00507708","2003-07-03",66.02,48.02,0.00,0.00,0.00
"USC00507708","2003-07-04",66.92,46.04,0.00,0.00,0.00
"USC00507708","2003-07-05",64.94,46.04,23.00,0.00,0.00
"USC00507708","2003-07-06",60.08,48.92,33.00,0.00,0.00
"USC00507708","2003-07-07",66.02,44.06,0.00,0.00,0.00
"USC00507708","2003-07-08",66.02,44.96,0.00,0.00,0.00
"USC00507708","2003-07-09",78.98,44.06,0.00,0.00,0.00
"USC00507708","2003-07-10",57.02,51.98,0.00,0.00,0.00
"USC00507708","2003-07-11",64.04,51.98,10.00,0.00,0.00
"USC00507708","2003-07-12",64.04,50.00,157.00,0.00,0.00
"USC00507708","2003-07-13",78.98,53.06,0.00,0.00,0.00
"USC00507708","2003-07-14",78.98,48.92,0.00,0.00,0.00
"USC00507708","2003-07-15",68.00,51.98,0.00,0.00,0.00
"USC00507708","2003-07-16",66.02,48.92,0.00,0.00,0.00
"USC00507708","2003-07-17",62.96,48.92,0.00,0.00,0.00
"USC00507708","2003-07-18",62.06,48.92,0.00,0.00,0.00
"USC00507708","2003-07-19",57.92,51.08,3.00,0.00,0.00
"USC00507708","2003-07-20",57.92,50.00,0.00,0.00,0.00
"USC00507708","2003-07-21",57.92,50.00,69.00,0.00,0.00
"USC00507708","2003-07-22",64.04,50.00,0.00,0.00,0.00
"USC00507708","2003-07-23",64.04,48.02,0.00,0.00,0.00
"USC00507708","2003-07-24",66.02,48.02,8.00,0.00,0.00
"USC00507708","2003-07-25",64.04,51.08,8.00,0.00,0.00
"USC00507708","2003-07-26",57.02,51.98,18.00,0.00,0.00
"USC00507708","2003-07-27",62.06,51.08,0.00,0.00,0.00
"USC00507708","2003-07-28",62.96,51.98,5.00,0.00,0.00
"USC00507708","2003-07-29",62.96,50.00,5.00,0.00,0.00
"USC00507708","2003-07-30",55.94,48.92,10.00,0.00,0.00
"USC00507708","2003-07-31",62.96,51.98,0.00,0.00,0.00
"USC00507708","2003-08-01",62.96,53.06,0.00,0.00,0.00
"USC00507708","2003-08-02",69.08,48.92,0.00,0.00,0.00
"USC00507708","2003-08-03",68.00,44.06,0.00,0.00,0.00
"USC00507708","2003-08-04",69.08,48.02,0.00,0.00,0.00
"USC00507708","2003-08-05",66.92,46.94,0.00,0.00,0.00
"USC00507708","2003-08-06",71.06,55.04,3.00,0.00,0.00
"USC00507708","2003-08-07",64.04,55.04,0.00,0.00,0.00
"USC00507708","2003-08-08",73.04,53.06,0.00,0.00,0.00
"USC00507708","2003-08-09",75.92,51.98,0.00,0.00,0.00
"USC00507708","2003-08-10",69.98,53.06,0.00,0.00,0.00
"USC00507708","2003-08-11",64.94,55.04,69.00,0.00,0.00
"USC00507708","2003-08-12",62.96,53.96,23.00,0.00,0.00
"USC00507708","2003-08-13",69.08,53.96,15.00,0.00,0.00
"USC00507708","2003-08-14",60.08,53.06,71.00,0.00,0.00
"USC00507708","2003-08-15",57.02,51.98,130.00,0.00,0.00
"USC00507708","2003-08-16",62.06,48.92,18.00,0.00,0.00
"USC00507708","2003-08-17",59.00,44.96,0.00,0.00,0.00
"USC00507708","2003-08-18",64.04,42.98,3.00,0.00,0.00
"USC00507708","2003-08-19",62.96,48.92,13.00,0.00,0.00
"USC00507708","2003-08-20",62.96,46.04,267.00,0.00,0.00
"USC00507708","2003-08-21",55.04,46.94,33.00,0.00,0.00
"USC00507708","2003-08-22",64.04,44.96,0.00,0.00,0.00
"USC00507708","2003-08-23",66.92,44.06,0.00,0.00,0.00
"USC00507708","2003-08-24",66.92,44.96,0.00,0.00,0.00
"USC00507708","2003-08-25",59.00,51.08,3.00,0.00,0.00
"USC00507708","2003-08-26",57.02,48.02,48.00,0.00,0.00
"USC00507708","2003-08-27",60.98,48.02,8.00,0.00,0.00
"USC00507708","2003-08-28",53.96,51.08,28.00,0.00,0.00
"USC00507708","2003-08-29",57.92,51.08,605.00,0.00,0.00
"USC00507708","2003-08-30",59.00,48.02,3.00,0.00,0.00
"USC00507708","2003-08-31",60.08,41.00,0.00,0.00,0.00
"USC00507708","2003-09-01",59.00,48.02,0.00,0.00,0.00
"USC00507708","2003-09-02",57.92,46.04,0.00,0.00,0.00
"USC00507708","2003-09-03",64.04,42.08,0.00,0.00,0.00
"USC00507708","2003-09-04",62.96,46.04,0.00,0.00,0.00
"USC00507708","2003-09-05",55.04,48.02,33.00,0.00,0.00
"USC00507708","2003-09-06",51.98,41.00,15.00,0.00,0.00
"USC00507708","2003-09-07",62.06,39.92,0.00,0.00,0.00
"USC00507708","2003-09-08",62.06,39.02,0.00,0.00,0.00
"USC00507708","2003-09-09",57.92,48.02,99.00,0.00,0.00
"USC00507708","2003-09-10",57.02,48.92,46.00,0.00,0.00
"USC00507708","2003-09-11",59.00,42.08,5.00,0.00,0.00
"USC00507708","2003-09-12",66.02,42.08,0.00,0.00,0.00
"USC00507708","2003-09-13",57.92,42.08,0.00,0.00,0.00
"USC00507708","2003-09-14",62.96,42.08,0.00,0.00,0.00
"USC00507708","2003-09-15",57.02,35.06,0.00,0.00,0.00
"USC00507708","2003-09-16",57.92,33.98,0.00,0.00,0.00
"USC00507708","2003-09-17",51.98,35.06,25.00,0.00,0.00
"USC00507708","2003-09-18",53.96,33.98,5.00,0.00,0.00
"USC00507708","2003-09-19",53.96,33.08,0.00,0.00,0.00
"USC00507708","2003-09-20",51.08,37.94,91.00,0.00,0.00
"USC00507708","2003-09-21",50.00,30.92,0.00,0.00,0.00
"USC00507708","2003-09-22",50.00,30.02,0.00,0.00,0.00
"USC00507708","2003-09-23",48.92,44.06,81.00,0.00,0.00
"USC00507708","2003-09-24",46.94,37.94,175.00,0.00,0.00
"USC00507708","2003-09-25",50.00,39.92,0.00,0.00,0.00
"USC00507708","2003-09-26",55.94,37.94,0.00,0.00,0.00
"USC00507708","2003-09-27",55.04,37.94,10.00,0.00,0.00
"USC00507708","2003-09-28",53.96,48.92,84.00,0.00,0.00
"USC00507708","2003-09-29",57.02,37.94,8.00,0.00,0.00
"USC00507708","2003-09-30",51.08,42.98,64.00,0.00,0.00
"USC00507708","2003-10-01",59.00,51.08,396.00,0.00,0.00
"USC00507708","2003-10-02",53.06,46.94,401.00,0.00,0.00
"USC00507708","2003-10-03",55.94,35.96,5.00,0.00,0.00
"USC00507708","2003-10-04",55.04,44.96,5.00,0.00,0.00
"USC00507708","2003-10-05",55.04,44.96,389.00,0.00,0.00
"USC00507708","2003-10-06",55.04,44.96,414.00,0.00,0.00
"USC00507708","2003-10-07",51.08,48.02,5.00,0.00,0.00
"USC00507708","2003-10-08",51.08,41.00,89.00,0.00,0.00
"USC00507708","2003-10-09",50.00,39.92,15.00,0.00,0.00
"USC00507708","2003-10-10",46.94,35.06,0.00,0.00,0.00
"USC00507708","2003-10-11",46.04,33.98,8.00,0.00,0.00
"USC00507708","2003-10-12",46.94,30.92,0.00,0.00,0.00
"USC00507708","2003-10-13",46.94,30.92,94.00,0.00,0.00
"USC00507708","2003-10-14",48.02,46.04,175.00,0.00,0.00
"USC00507708","2003-10-15",51.08,46.94,300.00,0.00,0.00
"USC00507708","2003-10-16",46.94,37.04,142.00,0.00,0.00
"USC00507708","2003-10-17",53.06,35.06,3.00,0.00,0.00